Weather Service Report


580 
ASUS42 KFFC 271403
RWRGA 
WEATHER ROUNDUP FOR GEORGIA
NATIONAL WEATHER SERVICE PEACHTREE CITY GA
900 AM EST TUE JAN 27 2015

NOTE: "FAIR" INDICATES FEW OR NO CLOUDS BELOW 12,000 FEET WITH NO
SIGNIFICANT WEATHER AND/OR OBSTRUCTIONS TO VISIBILITY. 

* = USE WITH CAUTION. THE STATIONS MARKED WITH AN ASTERISK MAY NOT
REPORT WEATHER SUCH AS PRECIPITATION, FOG, OR THUNDER AND ARE NOT 
QUALITY CONTROLLED BY NWS.

THE REMARK "TC" DENOTES TEMPERATURE READING IN DEGREES CELSIUS.

GAZ001>058-271500-
NORTH GEORGIA
  
CITY           SKY/WX    TMP DP  RH WIND       PRES   REMARKS
ATLANTA        MOSUNNY   36  29  75 NW8       29.91R WCI  30          
ATHENS         CLOUDY    36  28  73 W5        29.89R WCI  32          
CHAMBLEE       CLOUDY    36  29  75 NW5       29.90R WCI  32          
PEACHTREE CITY SUNNY     35  32  88 CALM      29.92S                  
ROME           SUNNY     35  32  88 CALM      29.94R                  
WEST ATLANTA   MOSUNNY   34  29  82 CALM      29.92R                  
GAINESVILLE    CLOUDY    37  30  75 W9        29.88R WCI  30          
CARTERSVILLE   PTSUNNY   36  30  79 CALM      29.94R                  

  
CITY           SKY/WX    TMP DP  RH WIND       PRES   REMARKS
DALTON*        CLOUDY    34  32  93 CALM      29.94R                  
LAWRENCEVILLE* CLOUDY    36  23  60 W8        29.88R WCI  29          
MARIETTA       MOSUNNY   36  31  84 NW7       29.90S WCI  30          
KENNESAW*      MOSUNNY  N/A N/A N/A NW6       29.93R                  
$$

GAZ059>098-102>109-271500-
CENTRAL GEORGIA
  
CITY           SKY/WX    TMP DP  RH WIND       PRES   REMARKS
AUGUSTA-BUSH   CLOUDY    36  28  73 SW3       29.90R                  
AUGUSTA-DANIEL CLOUDY    38  29  70 CALM      29.88R                  
COLUMBUS       SUNNY     37  32  82 W6        29.96R WCI  32          
MACON          SUNNY     36  32  85 CALM      29.94S                  
ROBINS AFB     SUNNY     37  32  81 NW1       29.95R                  

  
CITY           SKY/WX    TMP DP  RH WIND       PRES   REMARKS
LAGRANGE*      SUNNY     42  39  91 NW8       29.94S                  
SYLVANIA*      PTSUNNY   40  32  74 NW6       29.89F                  
MILLEDGEVILLE* CLOUDY    36  34  93 CALM      29.93S                  
$$

GAZ099>101-110>166-271500-
SOUTH GEORGIA
  
CITY           SKY/WX    TMP DP  RH WIND       PRES   REMARKS
SAVANNAH       MOSUNNY   40  29  64 NW9       29.92R WCI  34          
VALDOSTA       SUNNY     44  37  76 VRB3      29.99R                  
ALMA           SUNNY     41  34  76 W8        29.95R                  
ST SIMONS      SUNNY     43  34  70 W8        29.95R                  
FT STEWART     SUNNY     42  31  65 W8        29.92R                  
ALBANY         SUNNY     41  35  79 W5        30.00R                  
HUNTER AFB     SUNNY     42  30  64 W13       29.90R                  
MOODY AFB      SUNNY     42  35  76 W7        29.98R                  
BRUNSWICK      SUNNY     45  34  65 W9        29.96R                  

  
CITY           SKY/WX    TMP DP  RH WIND       PRES   REMARKS
BAINBRIDGE*    SUNNY     45  39  81 W8        30.00R                  
MOULTRIE*      SUNNY     41  37  87 W5        29.99S                  
VIDALIA*       MOSUNNY   37  34  87 W6        29.94R WCI  33          
WAYCROSS*      SUNNY     45  39  79 W9        29.96S                  
DOUGLAS*       SUNNY     43  36  75 W6        29.98R                  
$$

Return to Home page


Western Regional Climate Center, wrcc@dri.edu